Flag for Germany Weather past 2 weeks in Alsfeld, Hesse, Germany

Now
50 °F

Rain. Overcast.


Feels Like: 47 °F
Forecast: 39 / 42 °F
Wind: 8 mph from Southwest

Location: Fritzlar

Current Time: Dec 19, 2014 at 11:26:17 AM

Latest Report: Dec 19, 2014 at 11:00 AM


Visibility: 11 mi

Pressure: 29.87 "Hg

Humidity: 89%

Dew point: 47 °F

Location of AlsfeldLocation

Historic Weather in Alsfeld — Graph

°F

Alsfeld temperature yesterday

Maximum temperature yesterday: 56 °F (at 9:00 PM)
Minimum temperature yesterday: 44 °F (at 12:00 AM)
Average temperature yesterday: 49 °F

Past Weeks' High & Low Weather Summary

 TemperatureHumidityPressure
High56 °F (Dec 18, 9:00 PM)97% (Dec 13, 11:00 PM)30.42 "Hg (Dec 13, 11:00 PM)
Low27 °F (Dec 9, 1:00 AM)67% (Dec 7, 1:00 PM)29.47 "Hg (Dec 12, 7:00 PM)
Average38 °F89%29.99 "Hg
* Reported Dec 4 10:00 AM — Dec 19 10:00 AM, Alsfeld, Weather by CustomWeather, © 2014

Note: Actual official high and low records may vary slightly from our data, if they occured in-between our weather recording intervals... More about our weather records

Advertising

Alsfeld weather history for previous 24 hours

 ConditionsComfort  
Time TempWeatherWind HumidityBarometerVisibility
10:00 AM
Dec 19
50 °FDrizzle. Overcast.9 mph88%29.86 "Hg11 mi
9:00 AM50 °FDrizzle. Overcast.8 mph90%29.87 "Hg9 mi
8:00 AM50 °FDrizzle. Overcast.8 mph91%29.87 "Hg5 mi
7:00 AM50 °FRain. Low clouds.9 mph89%29.88 "Hg5 mi
6:00 AM50 °FLight rain. Low clouds.8 mph91%29.89 "Hg7 mi
5:00 AM50 °FDrizzle. Low clouds.7 mph92%29.90 "Hg4 mi
4:00 AM51 °FLight rain. Overcast.8 mph90%29.90 "Hg4 mi
3:00 AM51 °FLight rain. Overcast.7 mph91%29.91 "Hg7 mi
2:00 AM51 °FLight rain. Overcast.7 mph91%29.92 "Hg5 mi
1:00 AM52 °FLight rain. Overcast.7 mph88%29.90 "Hg9 mi
12:00 AM54 °FOvercast.8 mph81%29.90 "Hg11 mi
11:00 PM
Dec 18
54 °FOvercast.7 mph81%29.89 "Hg11 mi
10:00 PM55 °FOvercast.9 mph77%29.88 "Hg11 mi
9:00 PM56 °FOvercast.8 mph78%29.87 "Hg11 mi
8:00 PM54 °FRain. Overcast.6 mph88%29.86 "Hg9 mi
7:00 PM53 °FOvercast.6 mph87%29.86 "Hg12 mi
6:00 PM53 °FOvercast.6 mph86%29.86 "Hg12 mi
5:00 PM52 °FOvercast.6 mph89%29.84 "Hg8 mi
4:00 PM50 °FOvercast.5 mph94%29.84 "Hg7 mi
3:00 PM49 °FDrizzle. Low clouds.5 mph94%29.84 "Hg5 mi
2:00 PM49 °FDrizzle. Low clouds.6 mph94%29.85 "Hg4 mi
1:00 PM49 °FLow clouds.6 mph91%29.86 "Hg9 mi
12:00 PM49 °FOvercast.6 mph91%29.87 "Hg9 mi
11:00 AM48 °FLow clouds.5 mph93%29.89 "Hg9 mi
Weather by CustomWeather, © 2014

See weather overviewHow to use our weather pages